N2IVN Vineland NJ US current weather conditions

sailwx.info

Wind from 068

Air temperature 10.6° C
Dewpoint 7.8° C

Last reported at 2019-Oct-16 02:05 UTC.
Time now 2019-Oct-16 02:54 UTC

Location: N 39°30' W 075°01'.
View on Google Maps.

See reports from other nearby stations

  
Tides and Currents Weather Stations Pressure Air Temp Water Temp Dewpoint Dewpoint Depression Visibility Wind Speed Wind Dir Waves Ship Positions
date/time (UTC)wind fromknots sea level pressurealtimeterstation pressurevisibilityair tempwater tempwave heightnotes
2019-Oct-16 02:35 068 10.0
2019-Oct-16 02:30 068 10.0
2019-Oct-16 02:25 068 10.0
2019-Oct-16 02:20 068 10.0
2019-Oct-16 02:15 068 10.0
2019-Oct-16 02:10 068 10.6
2019-Oct-16 02:05 068 10.6
2019-Oct-16 02:00 068 10.6
2019-Oct-16 01:55 068 10.6
2019-Oct-16 01:50 068 10.6
2019-Oct-16 01:45 068 11.1
2019-Oct-16 01:40 068 11.1
2019-Oct-16 01:35 068 11.1
2019-Oct-16 01:30 068 11.1
2019-Oct-16 01:25 068 11.7
2019-Oct-16 01:20 068 11.7
2019-Oct-16 01:15 068 11.7
2019-Oct-16 01:10 068 11.7
2019-Oct-16 01:05 068 11.7
2019-Oct-16 01:00 068 12.2
2019-Oct-16 00:55 068 12.2
2019-Oct-16 00:50 068 12.2
2019-Oct-16 00:45 068 12.2
2019-Oct-16 00:40 068 12.8
2019-Oct-16 00:35 068 12.8
2019-Oct-16 00:30 068 12.8
2019-Oct-16 00:25 068 12.8
2019-Oct-16 00:20 068 13.3
2019-Oct-16 00:15 068 13.3
2019-Oct-16 00:10 068 13.3
2019-Oct-16 00:05 022 13.3
2019-Oct-16 00:00 112 13.3
2019-Oct-15 23:55 135 13.9
2019-Oct-15 23:50 135 13.9
2019-Oct-15 23:45 135 13.9
2019-Oct-15 23:40 022 14.4
2019-Oct-15 23:35 338 14.4
2019-Oct-15 23:30 338 14.4
2019-Oct-15 23:25 004 15.0
2019-Oct-15 23:20 089 15.0
2019-Oct-15 23:15 022 15.0
2019-Oct-15 23:10 022 15.6
2019-Oct-15 23:05 15.6
2019-Oct-15 23:00 101 15.6
2019-Oct-15 22:55 045 16.1
2019-Oct-15 22:50 045 16.1
2019-Oct-15 22:45 045 16.1
2019-Oct-15 22:40 292 16.7
2019-Oct-15 22:35 038 16.7
2019-Oct-15 22:30 064 17.2
2019-Oct-15 22:25 100 17.2
2019-Oct-15 22:20 079 17.8
2019-Oct-15 22:15 095 17.8
2019-Oct-15 22:10 084 2 gusting 4 18.3
2019-Oct-15 22:05 104 0 gusting 5 18.3
2019-Oct-15 22:00 098 4 gusting 6 18.3
2019-Oct-15 21:55 058 2 gusting 6 18.9
2019-Oct-15 21:50 088 4 gusting 6 18.9
2019-Oct-15 21:45 074 0 gusting 6 19.4
2019-Oct-15 21:40 073 2 gusting 6 19.4
2019-Oct-15 21:35 112 4 gusting 7 19.4
2019-Oct-15 21:30 105 4 gusting 7 20.0
2019-Oct-15 21:25 084 4 gusting 11 20.0
2019-Oct-15 21:20 136 2 gusting 8 20.6
2019-Oct-15 21:15 098 2 gusting 8 20.6
2019-Oct-15 21:10 107 1 gusting 6 21.1
2019-Oct-15 21:05 111 0 gusting 6 21.1
2019-Oct-15 21:00 088 5 gusting 8 21.7
2019-Oct-15 20:55 112 2 gusting 5 21.7
2019-Oct-15 20:50 103 3 gusting 6 22.2
2019-Oct-15 20:45 108 3 gusting 6 22.2
2019-Oct-15 20:40 098 22.2
2019-Oct-15 20:35 090 0 gusting 2 22.8
2019-Oct-15 20:30 070 22.8
2019-Oct-15 20:25 094 0 gusting 2 22.8
2019-Oct-15 20:20 089 0 gusting 6 23.3
2019-Oct-15 20:15 090 0 gusting 5 23.3
2019-Oct-15 20:10 085 0 gusting 5 23.3
2019-Oct-15 20:05 073 0 gusting 5 23.3
2019-Oct-15 20:00 124 23.3
2019-Oct-15 19:55 105 23.3
2019-Oct-15 19:50 049 23.3
2019-Oct-15 19:45 315 23.9
2019-Oct-15 19:40 112 1 gusting 6 23.9
2019-Oct-15 19:35 080 1 gusting 2 24.4
2019-Oct-15 19:30 073 24.4
2019-Oct-15 19:25 135 24.4
2019-Oct-15 19:20 135 0 gusting 4 24.4
2019-Oct-15 19:15 083 1 gusting 5 24.4
2019-Oct-15 19:10 112 0 gusting 1 24.4
2019-Oct-15 19:05 074 0 gusting 1 25.0
2019-Oct-15 19:00 068 25.6
2019-Oct-15 18:55 202 1 gusting 4 26.1
2019-Oct-15 18:50 112 0 gusting 4 26.1
2019-Oct-15 18:45 109 26.1
2019-Oct-15 18:40 225 26.1
2019-Oct-15 18:35 225 0 gusting 2 26.1
2019-Oct-15 18:30 248 2 gusting 4 26.7
2019-Oct-15 18:25 090 0 gusting 2 26.7
2019-Oct-15 18:20 129 2 gusting 6 26.7
2019-Oct-15 18:15 135 0 gusting 6 26.1
2019-Oct-15 18:10 114 0 gusting 6 26.1
2019-Oct-15 18:05 225 1 gusting 5 25.6
2019-Oct-15 18:00 202 25.6
2019-Oct-15 17:55 158 25.0
2019-Oct-15 17:50 180 25.0
2019-Oct-15 17:45 090 0 gusting 5 25.0
2019-Oct-15 17:40 111 1 gusting 2 24.4
2019-Oct-15 17:35 191 24.4
2019-Oct-15 17:30 200 25.0
2019-Oct-15 17:25 068 25.0
2019-Oct-15 17:20 104 1 gusting 2 25.0
2019-Oct-15 17:15 179 0 gusting 2 25.0
2019-Oct-15 17:10 045 24.4
2019-Oct-15 17:05 078 0 gusting 4 24.4
2019-Oct-15 17:00 202 24.4
2019-Oct-15 16:55 188 23.9
2019-Oct-15 16:50 112 23.3
2019-Oct-15 16:45 067 0 gusting 1 22.8
2019-Oct-15 16:40 328 21.7
2019-Oct-15 16:35 328 21.7
2019-Oct-15 16:30 090 21.1
2019-Oct-15 16:25 315 21.1
2019-Oct-15 16:20 225 21.1
2019-Oct-15 16:15 263 21.1
2019-Oct-15 16:10 233 0 gusting 2 21.1
2019-Oct-15 16:05 225 21.1
2019-Oct-15 16:00 225 20.6
2019-Oct-15 15:55 225 3 gusting 6 20.6
2019-Oct-15 15:50 242 0 gusting 5 20.6
2019-Oct-15 15:45 206 1 gusting 4 20.0
2019-Oct-15 15:40 215 2 gusting 6 20.0
2019-Oct-15 15:35 245 19.4
2019-Oct-15 15:30 310 0 gusting 1 18.9
2019-Oct-15 15:25 228 1 gusting 5 18.3
2019-Oct-15 15:20 239 1 gusting 4 18.3
2019-Oct-15 15:15 290 18.3
2019-Oct-15 15:10 225 1 gusting 6 18.3
2019-Oct-15 15:05 240 1 gusting 6 18.3
2019-Oct-15 15:00 239 0 gusting 4 18.3
2019-Oct-15 14:55 218 1 gusting 6 17.8
2019-Oct-15 14:50 258 0 gusting 6 17.2
2019-Oct-15 14:45 209 0 gusting 6 16.7
2019-Oct-15 14:40 243 1 gusting 5 16.1
2019-Oct-15 14:35 309 0 gusting 5 16.1
2019-Oct-15 14:30 248 0 gusting 6 16.1
2019-Oct-15 14:25 261 1 gusting 5 15.6
2019-Oct-15 14:20 292 15.6
2019-Oct-15 14:15 243 0 gusting 5 15.6
2019-Oct-15 14:10 244 2 gusting 6 15.6
2019-Oct-15 14:05 309 0 gusting 5 16.1
2019-Oct-15 14:00 279 0 gusting 2 15.6
2019-Oct-15 13:55 275 0 gusting 5 15.6
2019-Oct-15 13:50 285 0 gusting 6 15.0
2019-Oct-15 13:45 248 14.4
2019-Oct-15 13:40 260 0 gusting 2 14.4
2019-Oct-15 13:35 244 1 gusting 6 13.9
2019-Oct-15 13:30 236 13.9
2019-Oct-15 13:25 280 13.3
2019-Oct-15 13:20 207 13.3
2019-Oct-15 13:15 225 0 gusting 2 12.8
2019-Oct-15 13:10 269 12.8
2019-Oct-15 13:05 248 12.8
2019-Oct-15 13:00 238 12.2
2019-Oct-15 12:55 236 0 gusting 1 11.7
2019-Oct-15 12:50 232 0 gusting 1 11.1
2019-Oct-15 12:45 230 10.6
2019-Oct-15 12:40 258 10.0
2019-Oct-15 12:35 237 8.9
2019-Oct-15 12:30 225 8.3
2019-Oct-15 12:25 225 8.3
2019-Oct-15 12:20 225 7.8
2019-Oct-15 12:15 225 7.8
2019-Oct-15 12:10 231 7.2
2019-Oct-15 12:05 225 7.2
2019-Oct-15 12:00 225 6.7
2019-Oct-15 11:55 210 6.7
2019-Oct-15 11:50 225 6.7
2019-Oct-15 11:45 225 6.7
2019-Oct-15 11:40 225 6.7
2019-Oct-15 11:35 225 6.7
2019-Oct-15 11:30 225 6.7
2019-Oct-15 11:25 225 6.7
2019-Oct-15 11:20 225 6.7
2019-Oct-15 11:15 225 6.7
2019-Oct-15 11:10 225 6.7
2019-Oct-15 11:05 225 6.7
2019-Oct-15 11:00 225 6.7
2019-Oct-15 10:55 225 6.7
2019-Oct-15 10:50 225 6.7
2019-Oct-15 10:45 225 6.7
2019-Oct-15 10:40 225 6.7
2019-Oct-15 10:35 225 6.7
2019-Oct-15 10:30 225 6.7
2019-Oct-15 10:25 225 6.7
2019-Oct-15 10:20 225 6.7
2019-Oct-15 10:15 225 6.7
2019-Oct-15 10:10 225 6.7
2019-Oct-15 10:05 225 6.7
2019-Oct-15 10:00 225 6.7
2019-Oct-15 09:55 225 6.7
2019-Oct-15 09:50 225 6.7
2019-Oct-15 09:45 225 7.2
2019-Oct-15 09:40 225 7.2
2019-Oct-15 09:35 225 7.2
2019-Oct-15 09:30 225 7.2
2019-Oct-15 09:25 225 7.2
2019-Oct-15 09:20 225 7.2
2019-Oct-15 09:15 225 7.2
2019-Oct-15 09:10 225 6.7
2019-Oct-15 09:05 225 6.7
2019-Oct-15 09:00 225 7.2
2019-Oct-15 08:55 225 7.2
2019-Oct-15 08:50 225 7.2
2019-Oct-15 08:45 225 7.2
2019-Oct-15 08:40 225 7.2
2019-Oct-15 08:35 225 7.2
2019-Oct-15 08:30 225 7.2
2019-Oct-15 08:25 225 7.2
2019-Oct-15 08:20 225 7.2
2019-Oct-15 08:15 225 7.8
2019-Oct-15 08:10 225 7.8
2019-Oct-15 08:05 225 7.8
2019-Oct-15 08:00 225 7.8
2019-Oct-15 07:55 225 7.8
2019-Oct-15 07:50 225 7.8
2019-Oct-15 07:45 225 7.8
2019-Oct-15 07:40 225 8.3
2019-Oct-15 07:35 225 8.3
2019-Oct-15 07:30 225 8.3
2019-Oct-15 07:25 225 8.3
2019-Oct-15 07:20 225 8.3
2019-Oct-15 07:15 225 8.3
2019-Oct-15 07:10 225 8.3
2019-Oct-15 07:05 225 8.3
2019-Oct-15 07:00 225 8.3
2019-Oct-15 06:55 225 8.9
2019-Oct-15 06:50 225 8.9
2019-Oct-15 06:45 225 8.9
2019-Oct-15 06:40 225 8.9
2019-Oct-15 06:35 225 8.9
2019-Oct-15 06:30 225 8.9
2019-Oct-15 06:25 225 8.9
2019-Oct-15 06:20 225 9.4
2019-Oct-15 06:15 225 9.4
2019-Oct-15 06:10 225 9.4
2019-Oct-15 06:05 225 9.4
2019-Oct-15 06:00 225 9.4
2019-Oct-15 05:55 225 10.0
2019-Oct-15 05:50 225 10.0
2019-Oct-15 05:45 225 10.0
2019-Oct-15 05:40 225 10.0
2019-Oct-15 05:35 225 10.6
2019-Oct-15 05:30 225 10.6
2019-Oct-15 05:25 225 10.6
2019-Oct-15 05:20 225 10.6
2019-Oct-15 05:15 225 11.1
2019-Oct-15 05:10 225 11.1
2019-Oct-15 05:05 225 11.1
2019-Oct-15 05:00 225 11.1
2019-Oct-15 04:55 246 11.1
2019-Oct-15 04:50 248 11.1
2019-Oct-15 04:45 248 11.1
2019-Oct-15 04:40 248 11.1
2019-Oct-15 04:35 248 11.7
2019-Oct-15 04:30 248 11.7
2019-Oct-15 04:25 248 11.7
2019-Oct-15 04:20 248 11.7
2019-Oct-15 04:15 248 11.7
2019-Oct-15 04:10 248 11.7
2019-Oct-15 04:05 248 11.7
2019-Oct-15 04:00 248 11.7
2019-Oct-15 03:55 248 11.7
2019-Oct-15 03:50 248 11.7
2019-Oct-15 03:45 248 11.7
2019-Oct-15 03:40 248 11.7
2019-Oct-15 03:35 248 11.1
2019-Oct-15 03:30 158 11.1
2019-Oct-15 03:25 180 11.1
2019-Oct-15 03:20 234 2 gusting 7 11.1
2019-Oct-15 03:15 045 11.1
2019-Oct-15 03:10 045 11.1
2019-Oct-15 03:05 045 11.1
2019-Oct-15 03:00 045 11.1
2019-Oct-15 02:55 045 11.7
2019-Oct-15 02:50 045 11.7
2019-Oct-15 02:45 045 11.7
2019-Oct-15 02:40 045 11.7
2019-Oct-15 02:35 045 12.2
2019-Oct-15 02:30 045 12.2
2019-Oct-15 02:25 045 12.2
2019-Oct-15 02:20 045 12.8
2019-Oct-15 02:15 045 12.8
2019-Oct-15 02:10 045 13.3
2019-Oct-15 02:05 045 13.3
2019-Oct-15 02:00 045 13.9
2019-Oct-15 01:55 045 13.9
2019-Oct-15 01:50 045 13.9
2019-Oct-15 01:45 090 14.4
2019-Oct-15 01:40 090 14.4
2019-Oct-15 01:35 074 14.4
2019-Oct-15 01:30 090 14.4
2019-Oct-15 01:25 112 15.0
2019-Oct-15 01:20 112 15.0
2019-Oct-15 01:15 119 15.0
2019-Oct-15 01:10 078 15.6
2019-Oct-15 01:05 090 15.6
2019-Oct-15 01:00 082 15.6
2019-Oct-15 00:55 076 16.1
2019-Oct-15 00:50 090 16.1
2019-Oct-15 00:45 068 16.1
2019-Oct-15 00:40 068 16.7
2019-Oct-15 00:35 090 16.7
2019-Oct-15 00:30 081 16.7
2019-Oct-15 00:25 079 16.7
2019-Oct-15 00:20 068 16.7
2019-Oct-15 00:15 112 17.2
2019-Oct-15 00:10 090 17.2
2019-Oct-15 00:05 072 17.2
2019-Oct-15 00:00 068 17.2
2019-Oct-14 23:55 099 17.2
2019-Oct-14 23:50 045 1 gusting 4 17.2
2019-Oct-14 23:45 090 17.2
2019-Oct-14 23:40 090 17.2
2019-Oct-14 23:35 087 17.2
2019-Oct-14 23:30 112 0 gusting 2 17.8
2019-Oct-14 23:25 103 17.8
2019-Oct-14 23:20 133 17.8
2019-Oct-14 23:15 090 17.8
2019-Oct-14 23:10 087 17.8
2019-Oct-14 23:05 090 18.3
2019-Oct-14 23:00 090 18.3
2019-Oct-14 22:55 090 18.3
2019-Oct-14 22:50 090 18.9
2019-Oct-14 22:45 090 18.9
2019-Oct-14 22:40 090 18.9
2019-Oct-14 22:35 068 19.4
2019-Oct-14 22:30 110 19.4
2019-Oct-14 22:25 112 20.0
2019-Oct-14 22:20 105 20.0
2019-Oct-14 22:15 112 20.0
2019-Oct-14 22:10 090 20.6
2019-Oct-14 22:05 098 20.6
2019-Oct-14 22:00 125 21.1
2019-Oct-14 21:55 096 21.1
2019-Oct-14 21:50 109 0 gusting 5 21.1
2019-Oct-14 21:45 103 1 gusting 6 21.7
2019-Oct-14 21:40 090 21.7
2019-Oct-14 21:35 110 1 gusting 6 22.2
2019-Oct-14 21:30 108 0 gusting 2 22.2
2019-Oct-14 21:25 096 22.8
2019-Oct-14 21:20 132 0 gusting 2 22.8
2019-Oct-14 21:15 076 23.3
2019-Oct-14 21:10 071 0 gusting 6 23.3
2019-Oct-14 21:05 152 23.3
2019-Oct-14 21:00 233 0 gusting 4 23.9
2019-Oct-14 20:55 210 0 gusting 5 23.9
2019-Oct-14 20:50 093 0 gusting 4 23.9
2019-Oct-14 20:45 114 0 gusting 1 24.4
2019-Oct-14 20:40 130 0 gusting 4 24.4
2019-Oct-14 20:35 091 1 gusting 7 24.4
2019-Oct-14 20:30 113 24.4
2019-Oct-14 20:25 122 0 gusting 5 25.0
2019-Oct-14 20:20 091 1 gusting 8 25.0
2019-Oct-14 20:15 180 0 gusting 8 25.0
2019-Oct-14 20:10 095 25.0
2019-Oct-14 20:05 128 25.6
2019-Oct-14 20:00 214 2 gusting 6 25.6
2019-Oct-14 19:55 199 25.6
2019-Oct-14 19:50 174 26.1
2019-Oct-14 19:45 217 0 gusting 2 26.1
2019-Oct-14 19:40 105 26.1
2019-Oct-14 19:35 195 0 gusting 6 26.7
2019-Oct-14 19:30 225 1 gusting 7 26.7
2019-Oct-14 19:25 155 0 gusting 6 26.7
2019-Oct-14 19:20 227 1 gusting 4 26.7
2019-Oct-14 19:15 158 0 gusting 1 26.7
2019-Oct-14 19:10 192 0 gusting 2 26.7
2019-Oct-14 19:05 229 3 gusting 10 27.2
2019-Oct-14 19:00 187 0 gusting 2 27.2
2019-Oct-14 18:55 170 1 gusting 2 27.8
2019-Oct-14 18:50 236 1 gusting 6 28.3
2019-Oct-14 18:45 204 1 gusting 6 28.3
2019-Oct-14 18:40 137 0 gusting 6 28.3
2019-Oct-14 18:35 218 0 gusting 5 28.9
2019-Oct-14 18:30 090 1 gusting 5 28.9
2019-Oct-14 18:25 140 28.9
2019-Oct-14 18:20 139 0 gusting 5 28.3
2019-Oct-14 18:15 114 0 gusting 2 28.3
2019-Oct-14 18:10 145 28.3
2019-Oct-14 18:05 120 0 gusting 5 27.8
2019-Oct-14 18:00 119 0 gusting 4 27.8
2019-Oct-14 17:55 135 0 gusting 2 27.2
2019-Oct-14 17:50 187 27.2
2019-Oct-14 17:45 082 0 gusting 4 26.7
2019-Oct-14 17:40 169 1 gusting 5 26.7
2019-Oct-14 17:35 165 2 gusting 5 26.7
2019-Oct-14 17:30 105 0 gusting 6 26.1
2019-Oct-14 17:25 112 0 gusting 2 26.1
2019-Oct-14 17:20 218 0 gusting 2 26.1
2019-Oct-14 17:15 197 1 gusting 7 26.1
2019-Oct-14 17:10 213 1 gusting 7 26.7
2019-Oct-14 17:05 209 1 gusting 4 26.7
2019-Oct-14 17:00 099 26.1
2019-Oct-14 16:55 164 0 gusting 1 25.6
2019-Oct-14 16:50 210 0 gusting 4 25.6
2019-Oct-14 16:45 222 1 gusting 4 25.0
2019-Oct-14 16:40 079 0 gusting 6 25.0
2019-Oct-14 16:35 102 0 gusting 5 24.4
2019-Oct-14 16:30 223 23.9
2019-Oct-14 16:25 114 23.9
2019-Oct-14 16:20 244 23.9
2019-Oct-14 16:15 213 24.4
2019-Oct-14 16:10 125 23.9
2019-Oct-14 16:05 268 24.4
2019-Oct-14 16:00 115 1 gusting 4 24.4
2019-Oct-14 15:55 086 0 gusting 5 24.4
2019-Oct-14 15:50 168 0 gusting 5 23.9
2019-Oct-14 15:45 225 23.9
2019-Oct-14 15:40 114 23.3
2019-Oct-14 15:35 099 22.8
2019-Oct-14 15:30 160 0 gusting 6 22.2
2019-Oct-14 15:25 113 1 gusting 6 22.2
2019-Oct-14 15:20 148 0 gusting 5 22.2
2019-Oct-14 15:15 158 0 gusting 4 22.2
2019-Oct-14 15:10 068 22.2
2019-Oct-14 15:05 059 0 gusting 5 22.2
2019-Oct-14 15:00 225 21.7
2019-Oct-14 14:55 090 21.7
2019-Oct-14 14:50 175 0 gusting 1 21.1
2019-Oct-14 14:45 090 20.0
2019-Oct-14 14:40 090 20.0
2019-Oct-14 14:35 193 19.4
2019-Oct-14 14:30 190 18.9
2019-Oct-14 14:25 127 18.9
2019-Oct-14 14:20 225 18.9
2019-Oct-14 14:15 189 18.9
2019-Oct-14 14:10 209 18.9
2019-Oct-14 14:05 207 0 gusting 1 18.9
2019-Oct-14 14:00 225 0 gusting 5 18.9
2019-Oct-14 13:55 242 0 gusting 4 18.3
2019-Oct-14 13:50 248 17.8
2019-Oct-14 13:45 225 17.2
2019-Oct-14 13:40 225 16.7
2019-Oct-14 13:35 225 16.7
2019-Oct-14 13:30 225 16.7
2019-Oct-14 13:25 225 16.7
2019-Oct-14 13:20 225 16.1
2019-Oct-14 13:15 225 16.1
2019-Oct-14 13:10 225 15.6
2019-Oct-14 13:05 225 15.6
2019-Oct-14 13:00 225 15.6
2019-Oct-14 12:55 225 15.6
2019-Oct-14 12:50 225 15.6
2019-Oct-14 12:45 225 15.6
2019-Oct-14 12:40 225 15.0
2019-Oct-14 12:35 225 15.0
2019-Oct-14 12:30 225 15.0
2019-Oct-14 12:25 225 15.0
2019-Oct-14 12:20 225 14.4
2019-Oct-14 12:15 225 14.4
2019-Oct-14 12:10 225 14.4
2019-Oct-14 12:05 225 14.4
2019-Oct-14 12:00 225 14.4
2019-Oct-14 11:55 225 14.4
2019-Oct-14 11:50 225 14.4
2019-Oct-14 11:45 225 14.4
2019-Oct-14 11:40 225 14.4
2019-Oct-14 11:35 225 14.4
2019-Oct-14 11:30 225 14.4
2019-Oct-14 11:25 225 14.4
2019-Oct-14 11:20 225 14.4
2019-Oct-14 11:15 225 14.4
2019-Oct-14 11:10 225 14.4
2019-Oct-14 11:05 225 14.4
2019-Oct-14 11:00 225 14.4
2019-Oct-14 10:55 225 14.4
2019-Oct-14 10:50 225 14.4
2019-Oct-14 10:45 225 14.4
2019-Oct-14 10:40 225 14.4
2019-Oct-14 10:35 225 14.4
2019-Oct-14 10:30 225 14.4
2019-Oct-14 10:25 225 14.4
2019-Oct-14 10:20 225 14.4
2019-Oct-14 10:15 225 14.4
2019-Oct-14 10:10 225 14.4
2019-Oct-14 10:05 225 14.4
2019-Oct-14 10:00 225 14.4
2019-Oct-14 09:55 225 14.4
2019-Oct-14 09:50 225 14.4
2019-Oct-14 09:45 225 14.4
2019-Oct-14 09:40 225 14.4
2019-Oct-14 09:35 225 14.4
2019-Oct-14 09:30 225 14.4
2019-Oct-14 09:25 225 14.4
2019-Oct-14 09:20 225 14.4
2019-Oct-14 09:15 225 14.4
2019-Oct-14 09:10 225 14.4
2019-Oct-14 09:05 225 14.4
2019-Oct-14 09:00 225 14.4
2019-Oct-14 08:55 225 14.4
2019-Oct-14 08:50 225 14.4
2019-Oct-14 08:45 225 14.4
2019-Oct-14 08:40 225 14.4
2019-Oct-14 08:35 225 14.4
2019-Oct-14 08:30 225 14.4
2019-Oct-14 08:25 225 14.4
2019-Oct-14 08:20 225 14.4
2019-Oct-14 08:15 225 14.4
2019-Oct-14 08:10 225 14.4
2019-Oct-14 08:05 270 14.4
2019-Oct-14 08:00 225 14.4
2019-Oct-14 07:55 225 14.4
2019-Oct-14 07:50 225 14.4
2019-Oct-14 07:45 225 14.4
2019-Oct-14 07:40 225 14.4
2019-Oct-14 07:35 225 14.4
2019-Oct-14 07:30 225 14.4
2019-Oct-14 07:25 225 14.4
2019-Oct-14 07:20 225 14.4
2019-Oct-14 07:15 225 14.4
2019-Oct-14 07:10 225 14.4
2019-Oct-14 07:05 217 14.4
2019-Oct-14 07:00 203 14.4
2019-Oct-14 06:55 202 14.4
2019-Oct-14 06:50 202 14.4
2019-Oct-14 06:45 202 14.4
2019-Oct-14 06:40 202 14.4
2019-Oct-14 06:35 202 15.0
2019-Oct-14 06:30 202 15.0
2019-Oct-14 06:25 202 15.0
2019-Oct-14 06:20 202 15.0
2019-Oct-14 06:15 202 15.0
2019-Oct-14 06:10 202 15.0
2019-Oct-14 06:05 202 15.0
2019-Oct-14 06:00 202 15.0
2019-Oct-14 05:55 225 15.0
2019-Oct-14 05:50 225 15.0
2019-Oct-14 05:45 229 15.0
2019-Oct-14 05:40 225 15.0
2019-Oct-14 05:35 225 15.0
2019-Oct-14 05:30 225 15.0
2019-Oct-14 05:25 225 15.0
2019-Oct-14 05:20 225 15.0
2019-Oct-14 05:15 225 15.0
2019-Oct-14 05:10 225 15.0
2019-Oct-14 05:05 270 15.0
2019-Oct-14 05:00 270 15.0
2019-Oct-14 04:55 248 15.0
2019-Oct-14 04:50 225 15.0
2019-Oct-14 04:45 225 15.0
2019-Oct-14 04:40 225 15.0
2019-Oct-14 04:35 225 15.0
2019-Oct-14 04:30 225 15.0
2019-Oct-14 04:25 225 15.0
2019-Oct-14 04:20 225 15.0
2019-Oct-14 04:15 225 15.0
2019-Oct-14 04:10 225 15.0
2019-Oct-14 04:05 225 15.0
2019-Oct-14 04:00 225 15.0
2019-Oct-14 03:55 225 15.0
2019-Oct-14 03:50 225 15.0
2019-Oct-14 03:45 225 15.0
2019-Oct-14 03:40 225 15.0
2019-Oct-14 03:35 225 14.4
2019-Oct-14 03:30 225 14.4
2019-Oct-14 03:25 225 14.4
2019-Oct-14 03:20 225 14.4
2019-Oct-14 03:15 225 14.4
2019-Oct-14 03:10 225 14.4
2019-Oct-14 03:05 225 14.4
2019-Oct-14 03:00 225 14.4
2019-Oct-14 02:55 225 14.4
2019-Oct-14 02:50 225 14.4
2019-Oct-14 02:45 225 14.4
2019-Oct-14 02:40 225 14.4
2019-Oct-14 02:35 225 14.4
2019-Oct-14 02:30 225 14.4
2019-Oct-14 02:25 248 14.4
2019-Oct-14 02:20 248 14.4
2019-Oct-14 02:15 248 14.4
2019-Oct-14 02:10 248 14.4
2019-Oct-14 02:05 248 14.4
2019-Oct-14 02:00 248 14.4